When you browse on this site, cookies collect data to enhance your experience and personalize the content and advertising you see.
Visit our Privacy Policy to learn more. By continuing to use the site, you agree to this use of cookies and data.
  • In Sweden
  • List of Countries
  • For 7 days
  • Water Temperature
  • Satellite Maps
  • Weather Map
  • Weather Widgets
  • user-avatar
    Login

    Hourly Weather Mastki

    Today, 26 April, Friday

    Time Temperature Precipitation Wind Pressure Humidity
    00:00 +16°C° 0 mm 2 mps 751 mmHg 78%
    01:00 +16°C° 0 mm 1 mps 751 mmHg 78%
    02:00 +15°C° 0 mm 1 mps 751 mmHg 79%
    03:00 +15°C° 0 mm 2 mps 750 mmHg 80%
    04:00 +15°C° 0 mm 2 mps 750 mmHg 81%
    05:00 +16°C° 0 mm 2 mps 750 mmHg 77%
    06:00 +18°C° 0 mm 2 mps 750 mmHg 73%
    07:00 +19°C° 0 mm 2 mps 750 mmHg 69%
    08:00 +21°C° 0 mm 2 mps 750 mmHg 63%
    09:00 +24°C° 0 mm 3 mps 749 mmHg 57%
    10:00 +26°C° 0 mm 3 mps 749 mmHg 51%
    11:00 +27°C° 0 mm 3 mps 749 mmHg 47%
    12:00 +27°C° 0 mm 3 mps 749 mmHg 44%
    13:00 +28°C° 0 mm 4 mps 748 mmHg 41%
    14:00 +28°C° 0 mm 3 mps 748 mmHg 41%
    15:00 +28°C° 0 mm 3 mps 748 mmHg 41%
    16:00 +28°C° 0 mm 2 mps 747 mmHg 41%
    17:00 +26°C° 0 mm 2 mps 747 mmHg 45%
    18:00 +24°C° 0 mm 2 mps 747 mmHg 49%
    19:00 +22°C° 0 mm 1 mps 747 mmHg 54%
    20:00 +21°C° 0 mm 1 mps 747 mmHg 56%
    21:00 +19°C° 0 mm 2 mps 747 mmHg 58%
    22:00 +19°C° 0 mm 2 mps 747 mmHg 59%
    23:00 +18°C° 0 mm 2 mps 747 mmHg 62%

    Tomorrow, 27 April, Saturday

    Time Temperature Precipitation Wind Pressure Humidity
    00:00 +18°C° 0 mm 2 mps 747 mmHg 64%
    01:00 +17°C° 0 mm 2 mps 747 mmHg 67%
    02:00 +17°C° 0.1 mm 2 mps 747 mmHg 71%
    03:00 +16°C° 0.1 mm 2 mps 747 mmHg 76%
    04:00 +15°C° 0.1 mm 2 mps 747 mmHg 80%
    05:00 +16°C° 0.3 mm 3 mps 747 mmHg 81%
    06:00 +17°C° 0.3 mm 4 mps 747 mmHg 82%
    07:00 +16°C° 0.3 mm 5 mps 747 mmHg 84%
    08:00 +16°C° 0.4 mm 5 mps 748 mmHg 83%
    09:00 +17°C° 0.4 mm 6 mps 748 mmHg 83%
    10:00 +17°C° 0.4 mm 7 mps 748 mmHg 82%
    11:00 +16°C° 0 mm 7 mps 748 mmHg 81%
    12:00 +16°C° 0 mm 7 mps 749 mmHg 80%
    13:00 +15°C° 0 mm 7 mps 749 mmHg 78%
    14:00 +15°C° 0 mm 6 mps 749 mmHg 77%
    15:00 +15°C° 0 mm 6 mps 749 mmHg 75%
    16:00 +15°C° 0 mm 6 mps 749 mmHg 74%
    17:00 +14°C° 0 mm 5 mps 750 mmHg 76%
    18:00 +13°C° 0 mm 5 mps 750 mmHg 77%
    19:00 +12°C° 0 mm 5 mps 750 mmHg 79%
    20:00 +12°C° 0 mm 4 mps 750 mmHg 78%
    21:00 +11°C° 0 mm 4 mps 750 mmHg 78%
    22:00 +10°C° 0 mm 4 mps 751 mmHg 77%
    23:00 +10°C° 0 mm 4 mps 751 mmHg 77%

    Day after tomorrow, 28 April, Sunday

    Time Temperature Precipitation Wind Pressure Humidity
    00:00 +8°C° 0 mm 4 mps 751 mmHg 76%
    01:00 +8°C° 0 mm 3 mps 751 mmHg 76%
    02:00 +9°C° 0 mm 3 mps 751 mmHg 74%
    03:00 +9°C° 0 mm 3 mps 751 mmHg 73%
    04:00 +9°C° 0 mm 3 mps 751 mmHg 72%
    05:00 +10°C° 0 mm 4 mps 752 mmHg 70%
    06:00 +11°C° 0 mm 4 mps 752 mmHg 69%
    07:00 +12°C° 0 mm 5 mps 752 mmHg 67%
    08:00 +13°C° 0 mm 5 mps 752 mmHg 68%
    09:00 +14°C° 0 mm 6 mps 752 mmHg 68%
    10:00 +15°C° 0 mm 6 mps 753 mmHg 68%
    11:00 +14°C° 0.1 mm 6 mps 753 mmHg 69%
    12:00 +14°C° 0.1 mm 6 mps 753 mmHg 71%
    13:00 +14°C° 0.1 mm 6 mps 753 mmHg 73%
    14:00 +13°C° 0.5 mm 5 mps 753 mmHg 77%
    15:00 +13°C° 0.5 mm 5 mps 753 mmHg 82%
    16:00 +12°C° 0.5 mm 4 mps 753 mmHg 87%
    17:00 +12°C° 0.6 mm 4 mps 753 mmHg 89%
    18:00 +11°C° 0.6 mm 4 mps 753 mmHg 91%
    19:00 +11°C° 0.6 mm 4 mps 753 mmHg 93%
    20:00 +11°C° 0.4 mm 4 mps 753 mmHg 93%
    21:00 +11°C° 0.4 mm 4 mps 753 mmHg 93%
    22:00 +9°C° 0.4 mm 5 mps 753 mmHg 93%
    23:00 +9°C° 0.1 mm 5 mps 753 mmHg 92%

    29 April, Monday

    Time Temperature Precipitation Wind Pressure Humidity
    00:00 +9°C° 0.1 mm 5 mps 753 mmHg 92%
    01:00 +8°C° 0.1 mm 5 mps 753 mmHg 91%
    02:00 +8°C° 0.1 mm 5 mps 753 mmHg 92%
    03:00 +8°C° 0.1 mm 6 mps 752 mmHg 92%
    04:00 +8°C° 0.1 mm 6 mps 752 mmHg 92%
    05:00 +8°C° 0.2 mm 5 mps 752 mmHg 93%
    06:00 +8°C° 0.2 mm 5 mps 752 mmHg 93%
    07:00 +9°C° 0.2 mm 5 mps 752 mmHg 93%
    08:00 +10°C° 0.7 mm 4 mps 752 mmHg 93%
    09:00 +11°C° 0.7 mm 4 mps 752 mmHg 94%
    10:00 +11°C° 0.7 mm 3 mps 752 mmHg 94%
    11:00 +12°C° 0.1 mm 3 mps 752 mmHg 92%
    12:00 +13°C° 0.1 mm 3 mps 752 mmHg 89%
    13:00 +16°C° 0.1 mm 3 mps 751 mmHg 87%
    14:00 +16°C° 0.2 mm 3 mps 751 mmHg 83%
    15:00 +17°C° 0.2 mm 4 mps 751 mmHg 80%
    16:00 +17°C° 0.2 mm 4 mps 751 mmHg 76%
    17:00 +15°C° 0 mm 4 mps 751 mmHg 79%
    18:00 +14°C° 0 mm 4 mps 751 mmHg 81%
    19:00 +13°C° 0 mm 4 mps 751 mmHg 83%
    20:00 +12°C° 0 mm 3 mps 752 mmHg 85%
    21:00 +11°C° 0 mm 3 mps 752 mmHg 87%
    22:00 +11°C° 0 mm 3 mps 752 mmHg 89%
    23:00 +10°C° 0 mm 3 mps 752 mmHg 90%

    30 April, Tuesday

    Time Temperature Precipitation Wind Pressure Humidity
    00:00 +9°C° 0 mm 3 mps 752 mmHg 91%
    01:00 +9°C° 0 mm 3 mps 752 mmHg 92%
    02:00 +8°C° 0 mm 3 mps 752 mmHg 91%
    03:00 +7°C° 0 mm 3 mps 753 mmHg 91%
    04:00 +7°C° 0 mm 3 mps 753 mmHg 90%
    05:00 +8°C° 0 mm 3 mps 753 mmHg 85%
    06:00 +9°C° 0 mm 3 mps 753 mmHg 81%
    07:00 +10°C° 0 mm 4 mps 753 mmHg 76%
    08:00 +11°C° 0 mm 4 mps 753 mmHg 68%
    09:00 +13°C° 0 mm 4 mps 753 mmHg 61%
    10:00 +15°C° 0 mm 4 mps 753 mmHg 54%
    11:00 +15°C° 0 mm 4 mps 753 mmHg 51%
    12:00 +17°C° 0 mm 4 mps 753 mmHg 48%
    13:00 +17°C° 0 mm 4 mps 752 mmHg 45%
    14:00 +17°C° 0 mm 4 mps 752 mmHg 46%
    15:00 +17°C° 0 mm 4 mps 752 mmHg 46%
    16:00 +17°C° 0 mm 4 mps 752 mmHg 47%
    17:00 +15°C° 0 mm 4 mps 752 mmHg 50%
    18:00 +14°C° 0 mm 3 mps 752 mmHg 52%
    19:00 +13°C° 0 mm 3 mps 752 mmHg 55%
    20:00 +12°C° 0 mm 3 mps 752 mmHg 55%
    21:00 +12°C° 0 mm 3 mps 752 mmHg 55%
    22:00 +11°C° 0 mm 3 mps 752 mmHg 55%
    23:00 +10°C° 0 mm 3 mps 752 mmHg 59%

    1 May, Wednesday

    Time Temperature Precipitation Wind Pressure Humidity
    00:00 +9°C° 0 mm 3 mps 752 mmHg 64%
    01:00 +8°C° 0 mm 3 mps 752 mmHg 68%
    02:00 +7°C° 0 mm 3 mps 752 mmHg 70%
    03:00 +7°C° 0 mm 2 mps 752 mmHg 72%
    04:00 +6°C° 0 mm 2 mps 752 mmHg 74%
    05:00 +8°C° 0 mm 2 mps 752 mmHg 70%
    06:00 +9°C° 0 mm 2 mps 752 mmHg 66%
    07:00 +10°C° 0 mm 2 mps 752 mmHg 63%
    08:00 +13°C° 0 mm 2 mps 752 mmHg 56%
    09:00 +14°C° 0 mm 2 mps 752 mmHg 49%
    10:00 +15°C° 0 mm 2 mps 752 mmHg 42%
    11:00 +15°C° 0 mm 2 mps 751 mmHg 42%
    12:00 +15°C° 0 mm 2 mps 751 mmHg 42%
    13:00 +15°C° 0 mm 2 mps 751 mmHg 42%
    14:00 +15°C° 0 mm 2 mps 751 mmHg 42%
    15:00 +15°C° 0 mm 1 mps 750 mmHg 43%
    16:00 +15°C° 0 mm 1 mps 750 mmHg 44%
    17:00 +14°C° 0 mm 1 mps 750 mmHg 48%
    18:00 +13°C° 0 mm 1 mps 750 mmHg 51%
    19:00 +11°C° 0 mm 0 mps 750 mmHg 55%
    20:00 +12°C° 0 mm 1 mps 750 mmHg 56%
    21:00 +11°C° 0 mm 1 mps 749 mmHg 57%
    22:00 +10°C° 0 mm 1 mps 749 mmHg 57%
    23:00 +10°C° 0 mm 1 mps 749 mmHg 59%
    Show more